Flag for U.S.A. Weather past 2 weeks in Lancaster, California, U.S.A.

Now
42 °F

Sunny.


Feels Like: 42 °F
Forecast: 38 / 54 °F
Wind: No wind

Location: Lancaster / Fox Field

Current Time: Dec 18, 2014 at 10:47:55 AM

Latest Report: Dec 18, 2014 at 9:56 AM


Visibility: 10 mi

Pressure: 30.26 "Hg

Humidity: 76%

Dew point: 35 °F

Location of LancasterLocation

Historic Weather in Lancaster — Graph

°F

Lancaster temperature yesterday

Maximum temperature yesterday: 51 °F (at 10:56 AM)
Minimum temperature yesterday: 40 °F (at 10:56 PM)
Average temperature yesterday: 45 °F

Past Weeks' High & Low Weather Summary

 TemperatureHumidityPressure
High65 °F (Dec 9, 2:56 PM)100% (Dec 3, 10:56 PM)30.36 "Hg (Dec 3, 10:56 PM)
Low30 °F (Dec 14, 6:56 AM)39% (Dec 9, 2:56 PM)29.72 "Hg (Dec 12, 2:56 AM)
Average47 °F80%30.10 "Hg
* Reported Dec 3 8:56 AM — Dec 18 8:56 AM, Lancaster, Weather by CustomWeather, © 2014

Note: Actual official high and low records may vary slightly from our data, if they occured in-between our weather recording intervals... More about our weather records

Advertising

Lancaster weather history for previous 24 hours

 ConditionsComfort  
Time TempWeatherWind HumidityBarometerVisibility
8:56 AM
Dec 18
39 °FOvercast.3 mph82%30.24 "Hg10 mi
7:56 AM37 °FSunny.5 mph89%30.20 "Hg10 mi
6:56 AM32 °FSunny.3 mph92%30.19 "Hg10 mi
5:56 AM34 °FClear.No wind92%30.16 "Hg10 mi
4:56 AM34 °FClear.No wind88%30.15 "Hg10 mi
3:56 AM38 °FPassing clouds.3 mph83%30.14 "Hg10 mi
2:56 AM40 °FPassing clouds.5 mph77%30.14 "Hg10 mi
1:56 AM38 °FPassing clouds.No wind83%30.14 "Hg10 mi
12:56 AM38 °FClear.No wind83%30.13 "Hg10 mi
11:56 PM
Dec 17
41 °FClear.6 mph74%30.12 "Hg10 mi
10:56 PM40 °FClear.9 mph80%30.13 "Hg10 mi
9:56 PM43 °FClear.14 mph71%30.13 "Hg10 mi
8:56 PM43 °FPassing clouds.5 mph74%30.13 "Hg10 mi
7:56 PM45 °FOvercast.14 mph68%30.11 "Hg10 mi
6:56 PM45 °FOvercast.10 mph71%30.10 "Hg10 mi
5:56 PM45 °FOvercast.10 mph71%30.10 "Hg10 mi
4:56 PM46 °FPassing clouds.16 mph71%30.09 "Hg10 mi
3:56 PM48 °FPartly sunny.17 mph68%30.07 "Hg10 mi
2:56 PM49 °FSunny.17 mph66%30.06 "Hg10 mi
1:56 PM50 °FScattered clouds.28 mph66%30.06 "Hg10 mi
12:56 PM50 °FOvercast.24 mph63%30.06 "Hg9 mi
11:56 AM51 °FSunny.18 mph63%30.05 "Hg10 mi
10:56 AM51 °FSunny.17 mph66%30.07 "Hg10 mi
Weather by CustomWeather, © 2014

See weather overviewHow to use our weather pages